DW7889 Weather Reports


Display with metric or nautical units.
time (UTC)temp
F
wind
direction
speed
MPH
gust
MPH
rain 1hr
in
rain 24hr
in
rain mn
in
humidity
%
barometer
mb
20260507134544 73 344 12.0 26.0 0.00 0.00 0.00 74 1011.5
20260507134106 73 348 12.0 20.0 0.00 0.00 0.00 74 1011.6
20260507133604 73 17 13.0 25.0 0.00 0.00 0.00 74 1011.7
20260507133104 73 30 12.0 23.0 0.00 0.00 0.00 73 1011.8
20260507132604 73 13 14.0 23.0 0.00 0.00 0.00 73 1011.9
20260507132044 73 11 17.0 24.0 0.00 0.00 0.00 73 1012.0
20260507131530 73 11 13.0 24.0 0.00 0.00 0.00 73 1012.1
20260507131031 73 9 12.0 21.0 0.00 0.00 0.00 74 1012.4
20260507130533 72 331 12.0 0.0 0.00 0.00 0.00 74 1012.2
20260507130034 72 25 10.0 20.0 0.00 0.00 0.00 75 1012.4
20260507125534 72 359 13.0 20.0 0.00 0.00 0.00 75 1012.5
20260507125035 72 354 12.0 25.0 0.00 0.00 0.00 75 1012.5
20260507124538 72 14 13.0 25.0 0.00 0.00 0.00 75 1012.6
20260507124037 72 11 13.0 20.0 0.00 0.00 0.00 74 1012.7
20260507123540 72 22 11.0 22.0 0.00 0.00 0.00 74 1012.8
20260507123040 72 347 13.0 22.0 0.00 0.00 0.00 74 1012.9
20260507122541 72 354 9.0 20.0 0.00 0.00 0.00 74 1012.8
20260507122039 72 360 12.0 21.0 0.00 0.00 0.00 74 1012.8
20260507121543 72 348 10.0 21.0 0.00 0.00 0.00 75 1012.8
20260507121026 72 360 9.0 20.0 0.00 0.00 0.00 75 1012.8
20260507120530 72 15 13.0 21.0 0.00 0.00 0.00 76 1012.8
20260507120056 72 359 10.0 25.0 0.00 0.00 0.00 76 1012.6
20260507115525 72 1 15.0 25.0 0.00 0.00 0.00 76 1012.6
20260507115030 72 355 13.0 22.0 0.00 0.00 0.00 76 1012.5
20260507114531 72 326 13.0 23.0 0.00 0.00 0.00 76 1012.5
20260507114035 71 8 14.0 23.0 0.00 0.00 0.00 76 1012.6
20260507113539 71 348 12.0 23.0 0.00 0.00 0.00 77 1012.5
20260507113040 71 1 10.0 18.0 0.00 0.00 0.00 77 1012.6
20260507112526 71 1 11.0 24.0 0.00 0.00 0.00 77 1012.5
20260507112051 71 15 11.0 24.0 0.00 0.00 0.00 77 1012.5
20260507111554 71 16 12.0 22.0 0.00 0.00 0.00 77 1012.4
20260507111054 71 11 11.0 22.0 0.00 0.00 0.00 77 1012.3
20260507110537 71 12 10.0 20.0 0.00 0.00 0.00 77 1012.3
20260507110038 71 9 13.0 20.0 0.00 0.00 0.00 77 1012.3
20260507105609 71 8 12.0 20.0 0.00 0.00 0.00 77 1012.1
20260507105043 71 297 11.0 20.0 0.00 0.00 0.00 77 1012.0
20260507104605 71 349 12.0 20.0 0.00 0.00 0.00 77 1012.0
20260507104045 71 5 13.0 20.0 0.00 0.00 0.00 77 1012.0
20260507103535 71 360 10.0 21.0 0.00 0.00 0.00 78 1012.1
20260507103040 71 1 14.0 23.0 0.00 0.00 0.00 78 1012.0
20260507102542 71 22 12.0 23.0 0.00 0.00 0.00 79 1012.1
20260507102104 71 355 12.0 21.0 0.00 0.00 0.00 79 1012.0
20260507101526 71 1 11.0 22.0 0.00 0.00 0.00 80 1012.0
20260507101030 71 25 12.0 22.0 0.00 0.00 0.00 80 1011.9
20260507100551 70 352 11.0 21.0 0.00 0.00 0.00 80 1012.0
20260507100031 71 28 12.0 23.0 0.00 0.00 0.00 80 1012.1
20260507095533 71 347 12.0 23.0 0.00 0.00 0.00 80 1012.0
20260507095032 71 353 12.0 21.0 0.00 0.00 0.00 80 1012.2
20260507094534 71 1 11.0 20.0 0.00 0.00 0.00 80 1012.1
20260507094040 71 359 11.0 19.0 0.00 0.00 0.00 80 1012.0
20260507093540 71 21 13.0 21.0 0.00 0.00 0.00 80 1012.0
20260507093043 71 1 14.0 23.0 0.00 0.00 0.00 80 1012.0
20260507092533 71 360 12.0 20.0 0.00 0.00 0.00 80 1012.0
20260507092039 71 1 14.0 23.0 0.00 0.00 0.00 80 1012.0
20260507091542 71 1 10.0 23.0 0.00 0.00 0.00 80 1012.1
20260507091047 71 357 12.0 21.0 0.00 0.00 0.00 80 1012.2
20260507090528 71 27 11.0 21.0 0.00 0.00 0.00 80 1012.2
20260507090035 71 17 13.0 20.0 0.00 0.00 0.00 81 1012.3
20260507085537 70 8 10.0 19.0 0.00 0.00 0.00 81 1012.3
20260507085040 70 1 12.0 19.0 0.00 0.00 0.00 81 1012.3
20260507084542 70 1 9.0 19.0 0.00 0.00 0.00 82 1012.3
20260507084041 70 6 11.0 20.0 0.00 0.00 0.00 82 1012.3
20260507083604 70 359 10.0 20.0 0.00 0.00 0.00 82 1012.4
20260507083026 70 360 10.0 24.0 0.00 0.00 0.00 82 1012.5
20260507082530 70 330 12.0 21.0 0.00 0.00 0.00 82 1012.5
20260507082054 70 1 12.0 19.0 0.00 0.00 0.00 82 1012.5
20260507081539 70 358 10.0 18.0 0.00 0.00 0.00 83 1012.5
20260507081044 70 359 10.0 19.0 0.00 0.00 0.00 83 1012.7
20260507080528 70 20 11.0 19.0 0.00 0.00 0.00 83 1012.7
20260507080034 70 360 10.0 19.0 0.00 0.00 0.00 83 1012.7
20260507075536 70 12 11.0 19.0 0.00 0.00 0.00 83 1012.8
20260507075042 70 13 11.0 19.0 0.00 0.00 0.00 84 1012.8
20260507074545 70 359 11.0 17.0 0.00 0.00 0.00 83 1012.9
20260507074028 70 360 10.0 19.0 0.00 0.00 0.00 84 1013.0
20260507073531 70 308 10.0 19.0 0.00 0.00 0.00 83 1013.0
20260507073035 70 1 10.0 17.0 0.00 0.00 0.00 83 1013.0
20260507072539 70 352 10.0 16.0 0.00 0.00 0.00 83 1013.0
20260507072101 70 15 11.0 17.0 0.00 0.00 0.00 83 1013.0
20260507071527 70 360 11.0 17.0 0.00 0.00 0.00 83 1013.3
20260507071033 70 12 9.0 19.0 0.00 0.00 0.00 82 1013.4
20260507070537 70 14 11.0 19.0 0.00 0.00 0.00 82 1013.5
20260507070043 70 340 9.0 18.0 0.00 0.00 0.00 82 1013.5
20260507065546 70 1 9.0 14.0 0.00 0.00 0.00 81 1013.6
20260507065030 69 1 8.0 12.0 0.00 0.00 0.00 81 1013.7
20260507064534 69 359 7.0 13.0 0.00 0.00 0.00 81 1013.8
20260507064036 69 1 7.0 13.0 0.00 0.00 0.00 81 1013.9
20260507063543 69 12 7.0 10.0 0.00 0.00 0.00 81 1014.0
20260507063023 69 302 5.0 11.0 0.00 0.00 0.00 81 1014.1
20260507062530 69 347 5.0 11.0 0.00 0.00 0.00 81 1014.1
20260507062034 69 13 5.0 10.0 0.00 0.00 0.00 81 1014.1
20260507061535 69 8 4.0 10.0 0.00 0.00 0.00 82 1014.3
20260507061042 69 20 4.0 10.0 0.00 0.00 0.00 82 1014.3
20260507060526 69 350 5.0 10.0 0.00 0.00 0.00 82 1014.5
20260507060050 69 360 3.0 7.0 0.00 0.00 0.00 82 1014.7
20260507055532 69 345 4.0 7.0 0.00 0.00 0.00 82 1014.8
20260507055057 69 9 3.0 6.0 0.00 0.00 0.00 83 1014.8
20260507054542 69 359 3.0 6.0 0.00 0.00 0.00 83 1014.8
20260507054026 69 328 1.0 7.0 0.00 0.00 0.00 83 1014.9
20260507053531 69 347 3.0 7.0 0.00 0.00 0.00 83 1014.9
20260507053055 69 70 3.0 6.0 0.00 0.00 0.00 83 1015.1
20260507052600 69 17 2.0 8.0 0.00 0.00 0.00 83 1015.1
20260507052102 69 344 2.0 8.0 0.00 0.00 0.00 83 1015.3
20260507051544 69 359 2.0 5.0 0.00 0.00 0.00 83 1015.4
20260507051026 69 330 2.0 5.0 0.00 0.00 0.00 83 1015.5
20260507050529 69 331 2.0 6.0 0.00 0.00 0.00 83 1015.6
20260507050037 69 17 3.0 6.0 0.00 0.00 0.00 83 1015.6
20260507045541 69 44 3.0 8.0 0.00 0.00 0.00 82 1015.7
20260507045031 69 360 3.0 6.0 0.00 0.00 0.00 82 1015.8
20260507044536 69 359 2.0 6.0 0.00 0.00 0.00 82 1015.9
20260507044038 70 45 2.0 4.0 0.00 0.00 0.00 82 1016.0
20260507043540 70 356 1.0 4.0 0.00 0.00 0.00 82 1016.0
20260507043042 70 47 3.0 4.0 0.00 0.00 0.00 82 1016.1
20260507042545 70 14 1.0 4.0 0.00 0.00 0.00 82 1016.2
20260507042028 70 309 2.0 6.0 0.00 0.00 0.00 81 1016.2
20260507041535 70 329 2.0 6.0 0.00 0.00 0.00 81 1016.3
20260507041035 70 11 3.0 6.0 0.00 0.00 0.00 81 1016.3
20260507040540 70 359 3.0 9.0 0.00 0.00 0.00 81 1016.3
20260507040030 70 1 4.0 9.0 0.00 0.00 0.00 81 1016.3
20260507035551 70 1 3.0 8.0 0.00 0.00 0.00 81 1016.4
20260507035034 70 33 3.0 8.0 0.00 0.00 0.00 81 1016.4
20260507034539 70 50 3.0 8.0 0.00 0.00 0.00 81 1016.5
20260507034042 70 26 3.0 5.0 0.00 0.00 0.00 80 1016.6
20260507033546 70 49 3.0 6.0 0.00 0.00 0.00 80 1016.6
20260507033031 70 23 3.0 7.0 0.00 0.00 0.00 80 1016.8
20260507032533 70 351 3.0 7.0 0.00 0.00 0.00 80 1016.8
20260507032039 70 347 2.0 5.0 0.00 0.00 0.00 80 1016.8
20260507031542 70 359 1.0 6.0 0.00 0.00 0.00 80 1016.9
20260507031023 70 23 3.0 5.0 0.00 0.00 0.00 80 1017.0
20260507030529 71 333 3.0 5.0 0.00 0.00 0.00 80 1017.0
20260507030038 71 360 3.0 8.0 0.00 0.00 0.00 79 1017.0
20260507025540 71 20 4.0 8.0 0.00 0.00 0.00 79 1017.1
20260507025042 71 357 3.0 5.0 0.00 0.00 0.00 78 1017.1
20260507024526 71 340 3.0 6.0 0.00 0.00 0.00 78 1017.1
20260507024049 71 339 3.0 6.0 0.00 0.00 0.00 78 1017.1
20260507023531 71 354 3.0 5.0 0.00 0.00 0.00 77 1017.2
20260507023034 72 1 3.0 7.0 0.00 0.00 0.00 77 1017.2
20260507022537 72 1 4.0 7.0 0.00 0.00 0.00 77 1017.1
20260507022040 72 360 2.0 6.0 0.00 0.00 0.00 76 1017.3
20260507021547 72 320 3.0 6.0 0.00 0.00 0.00 76 1017.3
20260507021028 71 358 2.0 8.0 0.00 0.00 0.00 76 1017.3
20260507020531 71 34 2.0 8.0 0.00 0.00 0.00 76 1017.4
20260507020035 72 337 2.0 6.0 0.00 0.00 0.00 76 1017.5
20260507015535 72 12 3.0 7.0 0.00 0.00 0.00 75 1017.5
20260507015038 72 359 2.0 7.0 0.00 0.00 0.00 75 1017.6
20260507014526 72 357 2.0 5.0 0.00 0.00 0.00 75 1017.6
20260507014031 72 4 3.0 5.0 0.00 0.00 0.00 76 1017.7
20260507013535 72 358 3.0 5.0 0.00 0.00 0.00 75 1017.9
20260507013038 72 360 2.0 5.0 0.00 0.00 0.00 75 1017.9
20260507012541 72 1 3.0 5.0 0.00 0.00 0.00 75 1017.9
20260507012044 72 338 3.0 4.0 0.00 0.00 0.00 75 1017.9
20260507011528 72 1 2.0 4.0 0.00 0.00 0.00 75 1017.7
20260507010535 72 359 2.0 4.0 0.00 0.00 0.00 75 1017.8
20260507010040 72 339 2.0 5.0 0.00 0.00 0.00 75 1017.7
20260507005604 72 356 3.0 5.0 0.00 0.00 0.00 74 1017.8
20260507005044 72 359 2.0 4.0 0.00 0.00 0.00 74 1017.9
20260507004526 72 337 1.0 3.0 0.00 0.00 0.00 74 1017.9
20260507004037 73 356 1.0 3.0 0.00 0.00 0.00 74 1017.9
20260507003541 73 324 2.0 4.0 0.00 0.00 0.00 73 1017.9
20260507003043 73 334 2.0 4.0 0.00 0.00 0.00 73 1017.9
20260507002544 73 335 2.0 4.0 0.00 0.00 0.00 73 1017.9
20260507002046 73 359 3.0 4.0 0.00 0.00 0.00 73 1018.0
20260507001529 73 347 1.0 3.0 0.00 0.00 0.00 73 1018.0
20260507001032 73 1 0.0 0.0 0.00 0.00 0.00 72 1018.0
20260507000533 73 1 0.0 3.0 0.00 0.00 0.00 72 1018.1
20260507000039 73 1 1.0 3.0 0.00 0.00 0.00 72 1018.1
20260506235541 73 1 1.0 4.0 0.00 0.00 0.00 72 1018.1
20260506235102 73 329 2.0 4.0 0.00 0.00 0.00 72 1018.1
20260506234544 74 341 1.0 4.0 0.00 0.00 0.00 72 1018.0
20260506234047 74 349 2.0 3.0 0.00 0.00 0.00 72 1018.1
20260506233053 74 359 1.0 5.0 0.00 0.00 0.00 73 1018.1
20260506232537 74 348 3.0 5.0 0.00 0.00 0.00 73 1018.1
20260506232040 74 1 2.0 5.0 0.00 0.00 0.00 72 1018.1
20260506231542 74 5 2.0 4.0 0.00 0.00 0.00 73 1018.1
20260506231043 74 334 3.0 4.0 0.00 0.00 0.00 73 1018.1
20260506230525 74 359 2.0 3.0 0.00 0.00 0.00 73 1018.1
20260506230034 74 319 1.0 4.0 0.00 0.00 0.00 72 1018.1
20260506225535 74 338 2.0 5.0 0.00 0.00 0.00 72 1018.0
20260506225042 74 347 3.0 5.0 0.00 0.00 0.00 72 1018.0
20260506224542 74 359 2.0 3.0 0.00 0.00 0.00 72 1018.0
20260506224104 75 330 2.0 3.0 0.00 0.00 0.00 72 1018.0
20260506223546 75 4 1.0 2.0 0.00 0.00 0.00 72 1018.0
20260506223028 75 1 1.0 3.0 0.00 0.00 0.00 72 1018.0
20260506222551 75 8 1.0 4.0 0.00 0.00 0.00 72 1018.1
20260506222037 75 16 2.0 4.0 0.00 0.00 0.00 72 1018.0
20260506221541 75 359 1.0 2.0 0.00 0.00 0.00 72 1018.1
20260506221025 75 1 1.0 2.0 0.00 0.00 0.00 71 1018.1
20260506220530 75 359 0.0 0.0 0.00 0.00 0.00 71 1018.1
20260506220039 76 22 0.0 0.0 0.00 0.00 0.00 71 1018.0
20260506215543 76 353 0.0 0.0 0.00 0.00 0.00 70 1018.0
20260506215028 76 342 0.0 0.0 0.00 0.00 0.00 69 1018.1
20260506214531 76 359 0.0 0.0 0.00 0.00 0.00 69 1018.0
20260506214036 77 359 0.0 3.0 0.00 0.00 0.00 67 1018.1
20260506213536 77 359 1.0 3.0 0.00 0.00 0.00 67 1018.1
20260506213040 77 12 0.0 4.0 0.00 0.00 0.00 66 1018.1
20260506212542 77 33 1.0 4.0 0.00 0.00 0.00 66 1018.1
20260506212028 78 1 1.0 6.0 0.00 0.00 0.00 65 1018.0
20260506211530 78 360 3.0 6.0 0.00 0.00 0.00 65 1017.9
20260506211033 78 359 3.0 6.0 0.00 0.00 0.00 65 1018.0
20260506210535 78 356 3.0 7.0 0.00 0.00 0.00 64 1018.0
20260506210039 78 18 4.0 7.0 0.00 0.00 0.00 64 1018.1
20260506205542 78 21 4.0 5.0 0.00 0.00 0.00 65 1018.1
20260506205044 78 6 2.0 5.0 0.00 0.00 0.00 65 1018.0
20260506204549 79 340 2.0 5.0 0.00 0.00 0.00 65 1018.0
20260506204031 79 340 2.0 4.0 0.00 0.00 0.00 65 1018.0
20260506203536 79 1 2.0 4.0 0.00 0.00 0.00 64 1018.0
20260506203038 80 359 2.0 3.0 0.00 0.00 0.00 64 1018.0
20260506202541 80 355 2.0 5.0 0.00 0.00 0.00 63 1018.1
20260506202106 80 1 2.0 5.0 0.00 0.00 0.00 63 1018.2
20260506201530 80 354 3.0 7.0 0.00 0.00 0.00 62 1018.2
20260506201033 81 11 4.0 9.0 0.00 0.00 0.00 61 1018.2
20260506200557 81 359 5.0 9.0 0.00 0.00 0.00 61 1018.2
20260506200041 81 335 3.0 9.0 0.00 0.00 0.00 60 1018.3
20260506195545 82 1 3.0 9.0 0.00 0.00 0.00 60 1018.2
20260506195028 82 336 5.0 9.0 0.00 0.00 0.00 60 1018.3
20260506194552 82 1 3.0 7.0 0.00 0.00 0.00 60 1018.3
20260506194032 82 316 5.0 10.0 0.00 0.00 0.00 60 1018.3
20260506193538 82 349 6.0 10.0 0.00 0.00 0.00 59 1018.1
20260506193100 82 310 6.0 10.0 0.00 0.00 0.00 59 1018.1
20260506192601 82 359 7.0 10.0 0.00 0.00 0.00 60 1018.1
20260506192043 82 1 5.0 10.0 0.00 0.00 0.00 59 1018.2
20260506191527 82 11 6.0 10.0 0.00 0.00 0.00 59 1018.3
20260506191029 83 359 6.0 10.0 0.00 0.00 0.00 59 1018.2
20260506190531 83 359 4.0 9.0 0.00 0.00 0.00 60 1018.2
20260506190035 82 327 5.0 9.0 0.00 0.00 0.00 60 1018.1
20260506185536 82 337 3.0 9.0 0.00 0.00 0.00 61 1018.2
20260506185026 81 358 5.0 11.0 0.00 0.00 0.00 62 1018.3
20260506184530 81 27 6.0 11.0 0.00 0.00 0.00 61 1018.3
20260506184054 82 9 5.0 9.0 0.00 0.00 0.00 61 1018.3
20260506183536 82 10 4.0 9.0 0.00 0.00 0.00 61 1018.4
20260506183041 82 31 5.0 13.0 0.00 0.00 0.00 60 1018.4
20260506182542 82 14 6.0 13.0 0.00 0.00 0.00 59 1018.5
20260506182025 82 356 7.0 13.0 0.00 0.00 0.00 59 1018.4
20260506181531 82 39 7.0 13.0 0.00 0.00 0.00 60 1018.5
20260506181034 82 35 8.0 13.0 0.00 0.00 0.00 60 1018.5
20260506180557 83 18 5.0 12.0 0.00 0.00 0.00 59 1018.5
20260506180043 83 346 5.0 14.0 0.00 0.00 0.00 60 1018.6
20260506175546 83 13 9.0 14.0 0.00 0.00 0.00 60 1018.7
20260506175026 83 360 7.0 11.0 0.00 0.00 0.00 60 1018.7
20260506174536 83 360 6.0 11.0 0.00 0.00 0.00 60 1018.7
20260506174040 83 15 7.0 12.0 0.00 0.00 0.00 61 1018.8
20260506173542 82 2 9.0 16.0 0.00 0.00 0.00 60 1018.9
20260506173025 83 21 8.0 14.0 0.00 0.00 0.00 60 1018.9
20260506172549 83 307 5.0 11.0 0.00 0.00 0.00 62 1018.9
20260506172053 83 360 9.0 13.0 0.00 0.00 0.00 62 1018.9
20260506171538 83 41 7.0 13.0 0.00 0.00 0.00 61 1019.0
20260506171043 83 345 4.0 11.0 0.00 0.00 0.00 62 1019.1
20260506170529 82 25 4.0 13.0 0.00 0.00 0.00 64 1019.1
20260506170032 82 316 8.0 17.0 0.00 0.00 0.00 63 1019.2
20260506165534 82 325 11.0 17.0 0.00 0.00 0.00 63 1019.3
20260506165035 82 351 9.0 13.0 0.00 0.00 0.00 63 1019.4
20260506164534 82 1 7.0 13.0 0.00 0.00 0.00 64 1019.4
20260506164035 81 360 6.0 17.0 0.00 0.00 0.00 64 1019.6
20260506163541 81 354 9.0 17.0 0.00 0.00 0.00 63 1019.7
20260506163041 81 358 7.0 14.0 0.00 0.00 0.00 64 1019.7
20260506162541 81 333 6.0 15.0 0.00 0.00 0.00 64 1019.7
20260506162043 81 1 9.0 15.0 0.00 0.00 0.00 64 1019.9
20260506161544 81 353 9.0 15.0 0.00 0.00 0.00 64 1020.0
20260506161044 81 16 7.0 15.0 0.00 0.00 0.00 66 1020.1
20260506160526 80 14 9.0 15.0 0.00 0.00 0.00 65 1020.2
20260506160111 80 44 8.0 14.0 0.00 0.00 0.00 66 1020.3
20260506155548 80 1 5.0 11.0 0.00 0.00 0.00 67 1020.4
20260506155027 80 36 7.0 15.0 0.00 0.00 0.00 67 1020.5
20260506154530 79 357 7.0 15.0 0.00 0.00 0.00 68 1020.6
20260506154031 79 359 8.0 16.0 0.00 0.00 0.00 68 1020.8
20260506153551 79 266 10.0 17.0 0.00 0.00 0.00 68 1020.8
20260506153031 80 17 7.0 12.0 0.00 0.00 0.00 69 1020.9
20260506152533 79 358 8.0 12.0 0.00 0.00 0.00 69 1021.0
20260506152038 80 19 5.0 10.0 0.00 0.00 0.00 68 1021.0
20260506151541 79 345 5.0 10.0 0.00 0.00 0.00 70 1021.0
20260506151101 79 20 4.0 13.0 0.00 0.00 0.00 71 1021.2
20260506150540 78 22 9.0 13.0 0.00 0.00 0.00 71 1021.2
20260506150041 78 359 6.0 13.0 0.00 0.00 0.00 71 1021.3
20260506145603 78 360 9.0 13.0 0.00 0.00 0.00 71 1021.4
20260506145103 78 4 6.0 12.0 0.00 0.00 0.00 72 1021.5
20260506144544 77 357 7.0 11.0 0.00 0.00 0.00 72 1021.5
20260506144045 77 19 4.0 11.0 0.00 0.00 0.00 73 1021.6
20260506143545 77 5 6.0 11.0 0.00 0.00 0.00 73 1021.7
20260506143046 76 360 6.0 11.0 0.00 0.00 0.00 74 1021.7
20260506142529 76 352 8.0 12.0 0.00 0.00 0.00 74 1021.7
20260506142030 76 23 7.0 12.0 0.00 0.00 0.00 74 1021.8
20260506141532 75 9 6.0 9.0 0.00 0.00 0.00 75 1022.0
20260506141034 75 16 5.0 12.0 0.00 0.00 0.00 76 1021.9
20260506140533 74 1 8.0 12.0 0.00 0.00 0.00 76 1022.0
20260506140038 74 1 8.0 12.0 0.00 0.00 0.00 76 1022.1
20260506135556 74 10 6.0 12.0 0.00 0.00 0.00 76 1022.2
20260506135043 74 13 8.0 12.0 0.00 0.00 0.00 76 1022.2